Location: Newark
(46.6500°N, 7.5500°E)
Time: 06:10:01
(UTC+00:00)

Envisat - Visible Passes

Search period start: 28 February 2020 00:00
Search period end: 09 March 2020 00:00
Orbit: 764 x 766 km, 98.1° (Epoch: 27 February)

Date Brightness Start Highest point End Pass type
(mag) Time Alt. Az. Time Alt. Az. Time Alt. Az.
28 Feb 5.7 05:11:24 10° NE 05:15:29 24° E 05:19:32 10° SE visible
28 Feb 5.4 18:08:00 10° SSW 18:12:19 28° W 18:16:40 10° NW visible
29 Feb 6.6 04:36:48 10° ENE 04:38:14 11° E 04:39:40 10° ESE visible
01 Mar 4.7 05:36:23 10° NNE 05:41:10 39° E 05:45:54 10° SSE visible
01 Mar 6.2 18:34:51 10° SW 18:38:04 17° W 18:41:19 10° NW visible
02 Mar 6.1 05:00:27 10° NE 05:04:04 19° E 05:07:40 10° SE visible
02 Mar 5.0 17:56:20 10° SSW 18:00:56 34° W 18:05:34 10° NNW visible
04 Mar 5.2 05:25:14 10° NNE 05:29:47 32° E 05:34:18 10° SSE visible
04 Mar 5.9 18:22:52 10° SW 18:26:39 21° W 18:30:27 10° NW visible
05 Mar 6.3 04:49:39 10° NE 04:52:38 15° E 04:55:36 10° SE visible
05 Mar 4.5 17:44:45 10° S 17:49:34 43° W 17:54:25 10° NNW visible
06 Mar 6.4 18:50:28 10° WSW 18:52:27 12° W 18:54:26 10° WNW visible
07 Mar 5.6 05:14:09 10° NE 05:18:24 26° E 05:22:36 10° SSE visible
07 Mar 5.6 18:11:02 10° SSW 18:15:14 26° W 18:19:27 10° NW visible
08 Mar 6.5 04:39:09 10° ENE 04:41:10 12° E 04:43:12 10° ESE visible
